Terminal Aerodrome Forecast
Issued by NWS

Home | Current Version | Previous Version | Text Only | Print | Product List | Glossary On
Versions: 1 2 3 4 5 6 7 8 9 10 11 12 13 14 15 16
000
FTUS45 KABQ 040500
TAFTCC
TAF
KTCC 040527Z 0406/0506 20012KT P6SM -TSRA OVC070CB
     FM040900 22009KT P6SM VCSH BKN025 BKN150
     FM041800 16012G20KT P6SM VCTS BKN070CB BKN090 PROB30 0419/0423
      +TSRA OVC050CB
     FM042300 16015KT 6SM TSRA OVC030CB
      AMD NOT SKED=

USA.gov is the U.S. government's official web portal to all federal, state and local government web resources and services.